Temp
-12 -12 -12 -12 -13 -13 -13 -13 -14 -14 -14 -14 -15 -15 -16 -17 -17 -18 -18 -18 -18 -18 -18 -18 -18 -18 -18 -17 -17 -18 -18 -18 -18 -18 -18 -18 -18 -18 -18 -18 -18 -17 -15 -15 -17 -17 -17 -18 -17 -17 -18 -18 -17 -18 -18 -18 -18 -18 -18 -18 -18 -18 -19
-12 -12 -13 -13 -13 -13 -14 -14 -14 -14 -14 -15 -15 -16 -17 -17 -18 -18 -18 -18 -18 -18 -18 -18 -18 -18 -18 -18 -18 -18 -18 -18 -18 -18 -18 -18 -18 -18 -18 -18 -18 -18 -17 -16 -16 -17 -17 -18 -18 -18 -18 -19 -18 -18 -18 -18 -18 -19 -19 -19 -19 -19 -20
-13 -13 -13 -13 -13 -14 -14 -14 -15 -15 -15 -15 -16 -17 -17 -18 -18 -18 -18 -18 -18 -18 -18 -18 -18 -18 -18 -18 -18 -18 -18 -18 -18 -18 -18 -18 -18 -18 -18 -19 -18 -18 -18 -17 -16 -17 -18 -18 -18 -18 -19 -19 -19 -19 -19 -19 -19 -19 -19 -20 -20 -20 -20
-13 -13 -14 -14 -14 -14 -15 -15 -15 -15 -16 -16 -17 -17 -17 -18 -18 -18 -18 -18 -18 -18 -18 -18 -18 -18 -18 -18 -18 -18 -19 -19 -19 -19 -19 -19 -19 -19 -19 -19 -19 -19 -18 -18 -17 -17 -18 -18 -18 -19 -19 -20 -20 -19 -20 -20 -20 -20 -20 -20 -21 -20 -21
-14 -14 -14 -14 -15 -15 -15 -16 -16 -16 -17 -17 -17 -17 -17 -18 -18 -18 -18 -18 -18 -18 -18 -18 -18 -18 -19 -18 -18 -19 -19 -19 -19 -19 -19 -19 -19 -20 -19 -19 -19 -19 -19 -19 -18 -17 -17 -18 -19 -19 -19 -20 -20 -20 -20 -20 -20 -20 -20 -21 -21 -21 -22
-14 -15 -15 -15 -15 -15 -16 -16 -17 -17 -17 -18 -17 -17 -17 -18 -18 -18 -18 -18 -18 -18 -18 -18 -18 -18 -19 -19 -19 -19 -19 -19 -20 -19 -20 -20 -20 -20 -20 -20 -20 -20 -19 -19 -19 -18 -18 -18 -19 -19 -19 -21 -21 -21 -20 -20 -20 -20 -21 -21 -22 -22 -22
-15 -15 -15 -15 -16 -16 -16 -17 -17 -18 -18 -18 -17 -17 -17 -18 -18 -18 -18 -18 -18 -18 -18 -18 -18 -19 -19 -19 -19 -19 -19 -20 -20 -20 -20 -20 -20 -20 -20 -20 -20 -20 -19 -19 -19 -18 -18 -18 -19 -19 -20 -21 -21 -21 -21 -21 -20 -20 -21 -22 -22 -22 -23
-15 -15 -16 -16 -16 -17 -17 -17 -18 -18 -18 -18 -17 -17 -17 -17 -18 -18 -18 -18 -18 -18 -18 -18 -19 -19 -19 -19 -19 -19 -20 -20 -20 -20 -20 -20 -20 -20 -20 -20 -19 -19 -19 -19 -19 -19 -19 -19 -19 -19 -20 -21 -21 -22 -22 -22 -22 -21 -22 -22 -23 -23 -23
-16 -16 -16 -16 -17 -17 -17 -18 -18 -18 -18 -18 -17 -17 -17 -17 -18 -18 -17 -18 -18 -18 -18 -19 -19 -19 -19 -19 -19 -19 -20 -20 -20 -20 -20 -20 -20 -19 -19 -19 -19 -19 -19 -19 -19 -19 -19 -19 -19 -20 -21 -21 -22 -22 -22 -23 -23 -23 -23 -23 -23 -23 -24
-16 -16 -17 -17 -17 -18 -18 -18 -18 -18 -18 -18 -17 -17 -17 -17 -18 -18 -18 -18 -18 -18 -18 -18 -19 -19 -19 -19 -19 -19 -19 -19 -20 -19 -19 -19 -19 -19 -19 -19 -19 -19 -19 -19 -19 -20 -20 -20 -20 -20 -22 -21 -22 -23 -23 -23 -23 -23 -23 -24 -23 -23 -24
-17 -17 -17 -17 -18 -18 -18 -18 -19 -18 -18 -18 -18 -17 -17 -17 -17 -17 -17 -18 -18 -18 -18 -18 -18 -19 -19 -19 -19 -19 -19 -19 -19 -19 -19 -19 -19 -19 -19 -19 -19 -19 -20 -20 -20 -20 -20 -20 -20 -21 -22 -22 -22 -23 -23 -23 -24 -24 -24 -24 -24 -23 -24
-17 -17 -18 -18 -18 -18 -18 -19 -19 -18 -18 -18 -18 -18 -17 -17 -17 -17 -18 -18 -18 -18 -18 -18 -18 -18 -18 -19 -19 -19 -19 -19 -19 -19 -19 -18 -19 -19 -19 -20 -20 -20 -20 -21 -20 -20 -20 -21 -21 -21 -22 -22 -23 -23 -23 -24 -24 -24 -24 -24 -24 -24 -24
-17 -18 -18 -18 -18 -18 -19 -19 -19 -18 -18 -18 -18 -18 -18 -18 -18 -18 -18 -18 -18 -18 -18 -18 -18 -18 -18 -19 -19 -19 -19 -19 -18 -18 -18 -18 -18 -19 -19 -20 -20 -21 -21 -21 -21 -21 -21 -21 -22 -22 -22 -22 -23 -23 -24 -24 -24 -24 -24 -24 -24 -24 -25
-18 -18 -18 -18 -18 -18 -19 -19 -19 -19 -19 -19 -18 -18 -18 -18 -18 -18 -18 -18 -18 -19 -19 -19 -19 -19 -19 -19 -19 -19 -19 -18 -18 -18 -18 -18 -18 -18 -19 -19 -20 -21 -21 -22 -22 -21 -22 -22 -22 -22 -22 -23 -24 -24 -24 -24 -24 -24 -25 -24 -24 -25 -25
-18 -19 -19 -19 -18 -19 -19 -20 -19 -19 -19 -19 -19 -19 -18 -18 -18 -18 -18 -18 -19 -19 -19 -19 -19 -19 -19 -19 -19 -19 -18 -18 -18 -18 -18 -18 -18 -18 -18 -19 -20 -21 -21 -21 -22 -22 -22 -22 -22 -23 -23 -23 -24 -24 -24 -25 -25 -25 -25 -24 -24 -24 -25
-19 -19 -19 -19 -19 -19 -19 -20 -19 -19 -19 -19 -19 -19 -18 -18 -18 -18 -18 -18 -19 -19 -19 -19 -19 -19 -18 -18 -18 -18 -18 -18 -18 -18 -18 -18 -18 -18 -18 -19 -20 -20 -21 -21 -22 -22 -22 -22 -22 -23 -23 -23 -24 -24 -24 -24 -24 -24 -25 -25 -24 -24 -24
-19 -19 -19 -19 -19 -19 -19 -20 -20 -19 -19 -19 -19 -19 -18 -18 -18 -18 -18 -18 -19 -19 -19 -18 -19 -18 -18 -18 -18 -18 -18 -18 -18 -18 -18 -18 -18 -18 -19 -19 -20 -20 -21 -21 -22 -22 -23 -23 -23 -23 -23 -24 -24 -25 -25 -25 -24 -25 -25 -25 -24 -23 -24
-19 -19 -19 -19 -19 -19 -19 -19 -20 -19 -19 -19 -19 -19 -18 -18 -18 -18 -18 -18 -18 -18 -18 -18 -18 -18 -18 -18 -18 -18 -18 -18 -18 -18 -18 -18 -18 -19 -19 -19 -20 -20 -21 -21 -22 -22 -23 -23 -23 -23 -23 -23 -24 -24 -26 -26 -26 -27 -26 -25 -25 -25 -25
-19 -19 -19 -19 -19 -19 -19 -19 -19 -19 -19 -19 -19 -19 -18 -18 -18 -18 -18 -18 -18 -18 -18 -18 -18 -18 -18 -18 -18 -18 -18 -18 -18 -18 -18 -19 -19 -19 -19 -20 -20 -20 -21 -21 -22 -22 -23 -23 -23 -23 -23 -23 -23 -23 -24 -25 -26 -27 -27 -27 -26 -26 -26
-19 -19 -19 -19 -19 -19 -19 -19 -19 -19 -19 -19 -19 -19 -19 -18 -18 -18 -18 -18 -18 -18 -18 -18 -18 -18 -18 -18 -18 -18 -18 -18 -18 -18 -19 -19 -19 -19 -19 -20 -20 -20 -21 -21 -22 -23 -23 -23 -23 -24 -24 -24 -24 -24 -24 -24 -25 -26 -27 -27 -27 -27 -27
-19 -19 -19 -19 -19 -19 -19 -19 -19 -19 -19 -19 -19 -19 -19 -18 -18 -18 -18 -17 -17 -17 -17 -17 -18 -18 -18 -18 -18 -18 -18 -18 -19 -19 -19 -19 -19 -19 -20 -20 -20 -21 -21 -22 -22 -23 -23 -24 -24 -24 -24 -24 -24 -24 -24 -24 -25 -25 -26 -26 -27 -27 -27
-19 -19 -19 -19 -19 -19 -19 -19 -19 -19 -19 -19 -19 -19 -19 -19 -18 -18 -18 -17 -17 -17 -17 -17 -18 -18 -18 -18 -18 -18 -18 -18 -19 -19 -19 -19 -20 -20 -20 -21 -21 -21 -22 -22 -23 -23 -23 -24 -24 -24 -24 -24 -24 -25 -25 -25 -25 -25 -25 -26 -26 -27 -27
-19 -19 -19 -19 -19 -19 -19 -19 -19 -19 -19 -19 -19 -19 -19 -18 -18 -18 -18 -17 -17 -17 -17 -17 -18 -18 -18 -18 -18 -18 -18 -19 -19 -19 -19 -20 -20 -20 -21 -21 -22 -22 -22 -23 -23 -23 -24 -24 -24 -24 -24 -25 -25 -25 -25 -25 -25 -25 -25 -25 -25 -26 -26
-19 -19 -19 -19 -19 -18 -18 -18 -18 -18 -19 -19 -18 -18 -18 -18 -18 -17 -17 -17 -17 -17 -17 -17 -17 -17 -18 -18 -18 -18 -19 -19 -19 -19 -19 -20 -20 -21 -21 -22 -22 -22 -23 -23 -23 -23 -24 -24 -24 -24 -25 -25 -25 -25 -25 -25 -25 -25 -25 -26 -26 -26 -26
-19 -19 -19 -18 -18 -18 -18 -18 -18 -18 -19 -18 -18 -18 -18 -17 -17 -17 -17 -17 -17 -17 -17 -17 -17 -17 -18 -18 -18 -18 -19 -19 -19 -19 -20 -20 -20 -21 -21 -22 -22 -22 -23 -23 -23 -24 -24 -24 -24 -24 -25 -25 -25 -26 -26 -26 -26 -26 -26 -26 -26 -26 -26
-19 -19 -19 -18 -18 -18 -18 -18 -18 -18 -18 -18 -18 -18 -17 -17 -17 -17 -17 -17 -17 -17 -17 -17 -18 -18 -18 -18 -18 -19 -19 -19 -19 -20 -20 -20 -21 -21 -21 -22 -22 -23 -23 -23 -24 -24 -24 -24 -24 -25 -25 -25 -26 -26 -26 -26 -26 -26 -26 -26 -26 -26 -26
-19 -19 -19 -18 -18 -18 -18 -18 -18 -18 -18 -18 -18 -17 -17 -17 -17 -17 -17 -17 -17 -17 -17 -18 -18 -18 -18 -18 -19 -19 -19 -19 -19 -20 -20 -20 -21 -21 -22 -22 -23 -23 -23 -24 -24 -24 -24 -25 -25 -25 -25 -26 -26 -26 -27 -27 -27 -27 -26 -26 -26 -26 -26
-19 -19 -19 -18 -18 -18 -18 -18 -18 -18 -18 -18 -18 -17 -17 -17 -17 -17 -17 -17 -17 -17 -18 -18 -18 -18 -18 -18 -19 -19 -19 -19 -20 -20 -20 -21 -21 -21 -22 -22 -23 -24 -24 -24 -24 -24 -25 -25 -25 -25 -26 -26 -26 -27 -27 -27 -27 -27 -27 -27 -27 -26 -26
-19 -19 -19 -18 -18 -18 -18 -18 -18 -18 -18 -18 -17 -17 -17 -17 -17 -17 -17 -17 -17 -17 -18 -18 -18 -18 -18 -19 -19 -19 -19 -20 -20 -20 -21 -21 -21 -22 -22 -23 -24 -24 -24 -25 -25 -25 -25 -25 -25 -26 -26 -26 -26 -27 -27 -28 -28 -28 -28 -27 -27 -27 -27
-19 -19 -19 -19 -19 -19 -18 -18 -18 -18 -18 -18 -17 -17 -17 -17 -17 -17 -17 -17 -17 -17 -18 -18 -18 -18 -18 -19 -19 -19 -19 -20 -20 -20 -21 -21 -21 -22 -22 -23 -24 -24 -25 -25 -25 -25 -25 -26 -26 -26 -26 -27 -27 -27 -27 -28 -28 -28 -28 -28 -28 -27 -27
-20 -19 -19 -19 -19 -19 -19 -18 -18 -18 -18 -18 -17 -17 -17 -17 -17 -17 -17 -17 -17 -17 -18 -18 -18 -18 -19 -19 -19 -19 -20 -20 -20 -21 -21 -21 -22 -22 -23 -23 -24 -25 -25 -25 -25 -26 -26 -26 -26 -26 -27 -27 -27 -27 -28 -28 -28 -28 -29 -28 -28 -28 -28
-20 -19 -19 -19 -19 -19 -18 -18 -18 -18 -17 -17 -17 -17 -17 -17 -18 -18 -18 -17 -17 -17 -18 -18 -18 -18 -19 -19 -19 -20 -20 -20 -21 -21 -21 -21 -22 -23 -23 -24 -24 -25 -25 -25 -26 -26 -26 -26 -27 -27 -27 -27 -27 -28 -28 -28 -28 -29 -29 -29 -29 -28 -28
-19 -19 -19 -19 -19 -19 -18 -18 -18 -17 -17 -17 -17 -17 -17 -17 -18 -18 -18 -18 -18 -18 -18 -18 -18 -19 -19 -19 -20 -20 -20 -21 -21 -21 -21 -22 -22 -23 -23 -24 -24 -25 -25 -26 -26 -26 -27 -27 -27 -27 -27 -27 -27 -28 -28 -28 -28 -29 -29 -29 -29 -29 -29
-19 -19 -19 -19 -19 -18 -18 -18 -17 -17 -17 -17 -17 -17 -17 -17 -18 -18 -18 -18 -18 -18 -18 -19 -19 -19 -19 -20 -20 -20 -21 -21 -21 -22 -22 -22 -23 -23 -24 -24 -25 -25 -26 -26 -26 -27 -27 -27 -27 -27 -27 -27 -28 -28 -28 -28 -29 -29 -29 -29 -29 -29 -29
-19 -19 -19 -19 -18 -18 -18 -18 -17 -17 -17 -17 -17 -17 -17 -17 -17 -18 -18 -18 -18 -18 -19 -19 -19 -19 -20 -20 -20 -21 -21 -21 -21 -22 -22 -23 -23 -23 -24 -24 -25 -25 -26 -26 -27 -27 -27 -27 -27 -28 -28 -28 -28 -28 -28 -29 -29 -29 -29 -30 -30 -30 -29
-19 -19 -19 -18 -18 -17 -17 -17 -17 -17 -17 -17 -17 -17 -17 -17 -17 -18 -18 -18 -19 -19 -19 -19 -19 -20 -20 -20 -21 -21 -21 -21 -22 -22 -23 -23 -23 -24 -24 -25 -25 -26 -26 -26 -27 -27 -27 -27 -28 -28 -28 -28 -28 -28 -29 -29 -29 -30 -30 -30 -30 -30 -30
Height
3030 3027 3025 3022 3020 3018 3015 3012 3009 3007 3004 3001 2999 2997 2994 2992 2991 2989 2988 2986 2985 2983 2981 2979 2977 2974 2972 2969 2967 2965 2963 2961 2958 2955 2953 2950 2947 2944 2941 2937 2933 2927 2924 2923 2920 2917 2914 2912 2908 2904 2901 2898 2895 2893 2889 2885 2882 2879 2876 2874 2871 2870 2867
3025 3022 3019 3017 3015 3013 3011 3008 3005 3002 2999 2996 2994 2992 2991 2989 2987 2986 2985 2983 2982 2980 2978 2976 2974 2971 2968 2966 2964 2961 2959 2956 2953 2950 2948 2945 2942 2939 2936 2932 2928 2924 2919 2916 2914 2911 2909 2906 2902 2898 2895 2891 2888 2885 2882 2878 2875 2872 2870 2867 2865 2863 2861
3020 3017 3015 3013 3011 3008 3006 3003 3000 2997 2994 2991 2990 2988 2987 2985 2984 2983 2981 2980 2979 2977 2975 2973 2970 2968 2965 2962 2960 2957 2954 2951 2948 2945 2942 2939 2936 2933 2930 2927 2923 2919 2914 2910 2907 2905 2902 2898 2895 2892 2889 2885 2881 2878 2875 2871 2868 2865 2862 2860 2858 2857 2855
3016 3013 3011 3009 3006 3004 3001 2998 2995 2992 2989 2986 2985 2984 2983 2982 2981 2979 2978 2977 2975 2973 2971 2969 2967 2964 2961 2959 2956 2954 2951 2947 2944 2940 2936 2933 2931 2927 2923 2921 2917 2914 2909 2904 2900 2898 2895 2891 2888 2885 2882 2879 2875 2871 2868 2864 2861 2857 2855 2853 2851 2849 2848
3012 3009 3006 3004 3001 2999 2996 2993 2990 2987 2984 2982 2981 2980 2979 2978 2977 2976 2975 2974 2972 2970 2968 2965 2963 2961 2958 2955 2953 2950 2947 2943 2939 2936 2932 2928 2925 2921 2917 2914 2911 2908 2904 2899 2894 2891 2888 2884 2881 2879 2877 2874 2869 2864 2861 2858 2854 2850 2847 2845 2843 2842 2841
3007 3004 3002 2999 2996 2994 2991 2988 2986 2983 2980 2978 2977 2976 2975 2974 2973 2972 2971 2970 2968 2966 2964 2961 2959 2957 2955 2952 2949 2946 2943 2939 2935 2931 2927 2924 2921 2916 2912 2908 2905 2902 2898 2894 2889 2885 2881 2878 2875 2872 2871 2869 2863 2857 2853 2849 2846 2843 2841 2838 2836 2834 2835
3003 3000 2997 2994 2991 2989 2986 2984 2981 2979 2976 2975 2974 2973 2971 2970 2970 2969 2968 2966 2965 2963 2960 2958 2955 2953 2951 2948 2945 2942 2938 2934 2930 2926 2923 2920 2916 2912 2908 2904 2900 2896 2892 2888 2883 2878 2874 2871 2868 2865 2864 2861 2856 2851 2847 2842 2836 2834 2833 2832 2828 2827 2827
2998 2995 2992 2990 2987 2984 2982 2980 2978 2975 2973 2971 2970 2969 2967 2966 2966 2965 2964 2962 2961 2959 2956 2954 2952 2949 2947 2944 2941 2938 2934 2930 2926 2921 2918 2915 2911 2907 2903 2899 2894 2890 2885 2881 2876 2871 2868 2864 2861 2859 2857 2853 2848 2844 2840 2835 2829 2825 2825 2824 2821 2820 2819
2993 2991 2988 2985 2983 2980 2978 2976 2974 2971 2969 2968 2966 2964 2963 2962 2961 2960 2959 2957 2956 2954 2952 2950 2948 2946 2943 2940 2937 2934 2930 2926 2922 2917 2913 2910 2906 2902 2897 2893 2888 2883 2879 2874 2868 2864 2861 2857 2853 2852 2850 2845 2841 2836 2832 2828 2823 2818 2817 2815 2813 2813 2813
2988 2986 2983 2981 2979 2976 2974 2973 2970 2968 2966 2964 2962 2959 2958 2957 2958 2957 2955 2954 2952 2950 2948 2947 2944 2942 2939 2937 2933 2930 2926 2921 2917 2912 2908 2904 2900 2896 2891 2887 2882 2877 2873 2867 2861 2857 2854 2849 2847 2846 2842 2838 2835 2830 2824 2820 2816 2812 2810 2807 2805 2805 2806
2984 2981 2979 2976 2975 2973 2971 2969 2967 2964 2962 2960 2957 2955 2953 2952 2952 2952 2951 2949 2947 2946 2944 2942 2939 2936 2934 2931 2927 2924 2920 2915 2911 2906 2902 2898 2895 2891 2887 2882 2877 2872 2868 2861 2855 2851 2848 2844 2841 2840 2836 2831 2828 2823 2818 2814 2810 2806 2803 2801 2797 2796 2797
2979 2977 2974 2972 2971 2969 2967 2965 2963 2960 2958 2956 2953 2951 2948 2947 2946 2945 2944 2943 2941 2939 2937 2935 2932 2929 2926 2923 2919 2915 2912 2908 2904 2900 2896 2893 2890 2886 2883 2878 2873 2868 2863 2856 2851 2846 2843 2839 2836 2833 2830 2826 2821 2816 2812 2808 2805 2801 2798 2795 2791 2788 2789
2975 2972 2970 2968 2967 2965 2964 2962 2959 2956 2954 2952 2950 2947 2945 2943 2942 2940 2939 2937 2936 2933 2931 2928 2924 2921 2918 2915 2911 2908 2904 2900 2897 2893 2890 2887 2884 2881 2878 2874 2870 2865 2859 2853 2848 2843 2839 2836 2831 2827 2825 2821 2815 2810 2806 2801 2799 2796 2792 2789 2786 2783 2781
2970 2968 2966 2964 2963 2962 2960 2958 2955 2953 2950 2948 2945 2943 2941 2940 2939 2937 2935 2933 2931 2929 2926 2922 2919 2915 2912 2909 2906 2903 2899 2895 2892 2888 2885 2882 2879 2875 2872 2869 2866 2862 2856 2851 2846 2840 2836 2833 2828 2822 2820 2816 2809 2804 2799 2795 2792 2790 2786 2783 2780 2777 2775
2965 2964 2962 2961 2960 2958 2957 2955 2952 2949 2946 2944 2941 2939 2937 2936 2935 2933 2931 2930 2928 2925 2922 2918 2915 2910 2907 2904 2901 2898 2894 2891 2888 2884 2881 2878 2874 2871 2867 2864 2861 2856 2852 2848 2843 2838 2834 2830 2825 2820 2816 2812 2806 2800 2795 2790 2786 2784 2780 2777 2775 2772 2769
2961 2960 2959 2957 2956 2954 2953 2952 2949 2945 2943 2940 2937 2934 2932 2932 2930 2929 2927 2925 2924 2921 2918 2914 2911 2906 2903 2900 2897 2894 2890 2887 2883 2879 2876 2874 2870 2866 2863 2859 2854 2850 2846 2843 2838 2834 2829 2825 2821 2816 2811 2808 2802 2795 2790 2785 2781 2780 2776 2772 2769 2765 2763
2958 2956 2955 2954 2952 2950 2949 2948 2946 2942 2939 2937 2934 2930 2928 2927 2926 2924 2922 2920 2919 2916 2913 2910 2906 2902 2898 2896 2893 2890 2886 2883 2879 2875 2872 2868 2864 2861 2858 2853 2849 2844 2841 2837 2833 2829 2825 2820 2816 2812 2807 2803 2798 2791 2784 2778 2775 2774 2770 2765 2762 2758 2756
2954 2953 2951 2950 2948 2946 2945 2944 2943 2939 2935 2933 2931 2927 2923 2922 2920 2918 2916 2914 2912 2911 2907 2904 2901 2898 2894 2891 2889 2886 2882 2878 2874 2870 2867 2863 2859 2856 2852 2848 2843 2839 2835 2832 2828 2824 2820 2816 2813 2808 2804 2801 2796 2790 2784 2776 2771 2770 2765 2760 2757 2752 2748
2950 2949 2948 2946 2944 2943 2940 2939 2939 2936 2932 2929 2927 2923 2919 2917 2914 2912 2909 2907 2906 2904 2902 2899 2896 2893 2890 2887 2884 2881 2877 2874 2870 2866 2862 2858 2854 2851 2847 2843 2838 2834 2830 2826 2822 2818 2814 2810 2806 2802 2797 2794 2790 2786 2781 2775 2770 2767 2761 2757 2754 2749 2744
2946 2945 2944 2942 2940 2939 2937 2934 2933 2932 2929 2925 2923 2920 2916 2912 2909 2906 2903 2901 2900 2898 2896 2894 2891 2888 2885 2882 2879 2876 2873 2870 2866 2862 2858 2854 2850 2845 2842 2837 2832 2828 2823 2819 2816 2812 2808 2804 2800 2796 2792 2788 2784 2780 2775 2770 2766 2762 2758 2753 2750 2747 2742
2941 2940 2940 2939 2936 2935 2933 2930 2928 2927 2925 2922 2919 2916 2912 2908 2905 2902 2898 2896 2895 2893 2890 2888 2886 2883 2880 2877 2874 2872 2869 2866 2862 2858 2854 2849 2844 2840 2836 2831 2827 2823 2818 2814 2810 2807 2803 2800 2796 2791 2787 2783 2779 2775 2770 2765 2760 2757 2753 2749 2744 2741 2738
2937 2935 2935 2935 2933 2930 2929 2926 2924 2922 2921 2919 2916 2913 2909 2905 2902 2898 2894 2891 2890 2888 2886 2883 2881 2878 2875 2872 2870 2867 2864 2861 2857 2853 2848 2844 2840 2835 2831 2826 2822 2818 2813 2809 2805 2801 2797 2794 2790 2786 2782 2778 2774 2770 2765 2760 2756 2752 2748 2744 2740 2735 2732
2932 2931 2930 2930 2929 2927 2924 2922 2920 2918 2916 2914 2911 2908 2905 2901 2898 2895 2891 2888 2886 2884 2882 2879 2877 2874 2871 2868 2865 2862 2859 2856 2852 2848 2844 2840 2836 2832 2827 2823 2818 2814 2809 2805 2800 2796 2792 2788 2784 2780 2776 2772 2768 2764 2760 2755 2751 2746 2743 2739 2735 2730 2726
2928 2926 2925 2925 2924 2923 2921 2918 2915 2913 2911 2908 2906 2903 2900 2897 2894 2891 2888 2885 2882 2880 2878 2876 2873 2870 2867 2864 2861 2858 2855 2852 2848 2844 2841 2836 2832 2828 2824 2819 2815 2810 2805 2801 2796 2792 2787 2783 2779 2774 2770 2766 2762 2758 2754 2750 2746 2741 2738 2734 2730 2726 2721
2924 2922 2921 2920 2919 2918 2917 2914 2911 2908 2905 2902 2899 2897 2894 2891 2889 2886 2884 2881 2879 2877 2874 2871 2868 2865 2863 2860 2857 2853 2850 2847 2844 2840 2836 2832 2828 2824 2820 2815 2810 2806 2801 2796 2792 2787 2783 2778 2774 2769 2765 2761 2756 2752 2749 2745 2740 2737 2734 2730 2726 2722 2718
2919 2917 2916 2914 2913 2912 2911 2910 2907 2903 2900 2897 2894 2891 2888 2886 2884 2882 2880 2877 2875 2872 2870 2867 2864 2861 2859 2856 2852 2849 2846 2843 2840 2836 2833 2829 2824 2820 2815 2810 2805 2801 2796 2791 2787 2782 2778 2773 2769 2765 2760 2755 2751 2747 2743 2739 2735 2732 2729 2726 2722 2719 2715
2915 2913 2911 2909 2908 2907 2905 2904 2902 2898 2894 2892 2889 2886 2884 2881 2879 2877 2875 2873 2871 2868 2866 2864 2861 2858 2854 2851 2848 2845 2842 2839 2836 2832 2828 2824 2819 2815 2810 2805 2800 2795 2791 2786 2781 2777 2772 2768 2764 2759 2755 2751 2746 2742 2738 2734 2730 2726 2723 2720 2717 2714 2711
2911 2909 2906 2904 2903 2901 2899 2899 2897 2892 2889 2887 2884 2881 2880 2877 2875 2873 2871 2868 2866 2864 2862 2859 2856 2853 2850 2847 2844 2841 2838 2835 2831 2827 2823 2819 2814 2809 2805 2800 2795 2790 2785 2781 2776 2772 2767 2763 2759 2755 2750 2746 2742 2738 2733 2729 2725 2721 2718 2715 2712 2709 2706
2906 2904 2901 2899 2898 2895 2892 2891 2891 2888 2884 2881 2879 2877 2875 2873 2871 2868 2866 2864 2861 2859 2857 2854 2852 2849 2846 2843 2840 2837 2833 2830 2826 2822 2818 2814 2809 2804 2799 2795 2790 2785 2781 2776 2772 2767 2763 2758 2754 2750 2746 2741 2737 2733 2729 2725 2721 2717 2713 2710 2707 2704 2701
2902 2900 2897 2894 2893 2891 2887 2885 2884 2883 2880 2877 2875 2872 2870 2868 2866 2863 2861 2859 2856 2854 2852 2849 2847 2844 2841 2838 2835 2831 2828 2824 2820 2817 2813 2809 2804 2799 2795 2790 2785 2781 2776 2772 2768 2763 2759 2754 2750 2745 2741 2737 2733 2729 2725 2721 2717 2713 2709 2706 2702 2700 2697
2899 2897 2894 2890 2888 2887 2885 2881 2879 2877 2876 2873 2871 2869 2867 2864 2862 2859 2856 2853 2851 2849 2847 2844 2842 2839 2836 2832 2829 2826 2822 2819 2815 2812 2808 2804 2799 2795 2790 2786 2781 2776 2772 2768 2763 2759 2755 2750 2746 2741 2737 2733 2729 2725 2721 2717 2713 2709 2705 2701 2698 2695 2692
2896 2894 2891 2888 2884 2882 2881 2878 2875 2873 2871 2869 2867 2865 2863 2861 2858 2855 2852 2849 2846 2845 2842 2840 2837 2834 2831 2827 2824 2820 2817 2814 2810 2807 2803 2799 2795 2790 2786 2781 2776 2772 2768 2763 2759 2755 2751 2746 2742 2737 2733 2729 2725 2720 2717 2712 2708 2704 2700 2697 2694 2691 2688
2893 2890 2888 2885 2881 2878 2876 2874 2872 2869 2866 2864 2862 2861 2859 2857 2854 2851 2847 2845 2842 2840 2838 2835 2832 2829 2825 2822 2818 2815 2812 2809 2806 2802 2798 2794 2790 2786 2781 2777 2772 2768 2764 2759 2755 2751 2746 2742 2738 2733 2729 2724 2720 2716 2712 2708 2704 2700 2696 2692 2689 2686 2683
2890 2887 2884 2881 2878 2875 2872 2871 2868 2866 2863 2860 2858 2856 2853 2852 2850 2847 2844 2841 2838 2835 2833 2830 2827 2824 2821 2817 2814 2811 2808 2804 2801 2797 2793 2789 2785 2781 2777 2772 2768 2763 2759 2755 2751 2747 2742 2738 2734 2729 2725 2720 2715 2711 2707 2703 2699 2695 2691 2687 2684 2681 2679
2887 2884 2880 2877 2874 2872 2869 2867 2865 2862 2859 2856 2854 2851 2849 2848 2846 2844 2841 2837 2833 2830 2828 2825 2822 2820 2816 2813 2810 2806 2803 2799 2796 2792 2788 2784 2780 2776 2772 2768 2763 2759 2755 2750 2746 2742 2738 2733 2729 2725 2720 2715 2711 2707 2702 2698 2695 2691 2687 2683 2680 2676 2674
2881 2878 2876 2873 2870 2867 2865 2863 2860 2858 2856 2853 2850 2848 2845 2843 2841 2839 2836 2833 2830 2826 2824 2821 2818 2815 2812 2808 2805 2801 2798 2794 2791 2787 2783 2779 2775 2771 2767 2763 2758 2754 2750 2745 2741 2737 2733 2728 2724 2720 2715 2710 2706 2702 2697 2693 2689 2685 2682 2678 2675 2672 2669
Wind_Speed
46 47 48 48 49 49 49 49 49 49 48 47 44 41 37 34 31 31 32 31 32 33 34 34 35 37 38 39 40 40 41 41 42 42 43 43 43 43 44 44 46 49 50 49 49 50 51 50 52 54 53 53 54 53 54 55 55 54 53 52 50 48 47
47 48 48 48 49 48 48 48 49 48 47 46 42 37 33 31 31 31 32 31 31 32 33 34 35 36 38 40 40 41 41 42 43 44 44 44 45 45 45 45 47 49 51 51 51 52 52 52 53 55 55 55 56 56 56 57 56 55 54 53 51 49 46
47 48 48 48 49 48 47 47 47 47 46 44 39 33 30 30 31 32 31 31 32 32 33 34 35 36 38 40 40 40 42 43 43 45 46 46 47 47 47 48 49 50 52 54 55 54 55 55 54 55 55 55 57 58 58 58 58 57 56 54 52 50 46
47 47 48 48 48 47 46 46 46 45 43 40 36 31 30 31 32 32 31 31 32 33 33 34 35 36 38 39 40 40 41 43 44 45 47 48 49 50 51 51 52 53 54 56 57 57 57 57 56 56 56 56 57 58 59 59 59 59 58 56 54 51 47
46 47 47 47 47 46 45 45 43 42 39 36 33 31 32 33 32 32 31 32 32 33 33 34 35 36 37 38 39 40 41 43 44 46 47 49 50 52 54 54 55 55 56 57 58 58 58 58 58 57 56 55 57 59 60 60 60 60 59 57 55 53 48
45 46 46 46 46 45 44 42 40 37 35 34 33 33 34 34 33 32 32 32 33 33 33 34 35 36 37 37 39 40 41 43 45 46 48 49 51 53 55 56 56 56 57 57 58 59 59 59 59 58 56 55 57 59 61 61 62 61 59 58 57 54 49
44 45 46 46 45 44 42 39 35 33 34 33 34 34 35 34 33 33 33 33 33 33 33 34 35 36 36 37 38 40 41 43 46 48 49 49 51 52 54 56 56 57 57 58 58 59 60 60 60 59 57 56 58 59 60 61 63 63 60 58 57 55 51
44 44 45 44 43 42 39 35 32 32 34 34 35 36 36 35 34 34 34 34 34 34 34 34 35 36 36 37 39 40 42 44 46 48 49 49 50 52 54 55 56 57 57 58 59 60 61 61 61 59 58 57 58 59 59 60 62 63 61 58 57 55 52
43 44 44 43 41 38 34 31 31 32 34 35 36 36 36 36 35 35 35 35 35 35 35 35 35 35 36 37 39 40 42 44 45 47 48 49 50 51 53 54 55 57 58 59 61 61 61 62 62 60 58 59 59 60 60 61 62 63 61 60 58 55 52
43 43 43 41 37 33 31 30 31 34 35 36 37 37 38 37 36 36 36 36 36 35 35 34 35 36 37 38 39 40 41 43 45 46 47 48 49 50 52 53 55 57 58 59 61 62 62 63 63 60 59 60 59 60 61 62 62 63 62 61 60 56 52
42 42 40 37 33 30 29 30 32 34 36 36 37 38 39 39 38 37 37 36 35 35 35 36 37 38 39 39 40 40 41 42 44 45 46 47 48 49 50 52 54 55 57 58 61 62 62 63 62 60 59 59 59 59 61 62 62 63 62 61 61 58 53
40 39 37 33 29 29 30 31 33 35 36 36 38 39 41 41 41 40 40 39 38 38 38 40 41 41 41 41 42 42 42 43 44 45 46 47 47 48 49 50 51 53 55 57 60 62 62 61 61 59 58 58 59 60 61 62 61 61 61 60 60 59 55
39 36 32 30 28 29 30 31 33 35 36 37 38 40 42 42 42 42 41 40 40 41 42 43 44 44 43 43 43 43 43 44 44 45 46 47 47 48 48 49 49 50 52 54 57 60 60 58 58 58 56 57 59 60 60 61 60 60 60 60 59 58 55
36 33 29 28 29 30 30 31 33 35 36 38 39 41 43 42 42 42 41 41 41 42 43 44 44 44 43 43 42 42 42 43 43 45 46 46 48 49 50 50 49 48 49 51 53 55 56 55 55 56 55 55 57 59 59 60 60 59 59 59 58 57 56
34 30 28 28 30 30 30 29 32 35 37 38 40 42 43 42 42 42 41 41 42 42 43 43 42 42 42 41 40 40 40 41 42 44 45 46 48 49 50 50 50 49 49 49 50 51 51 50 50 51 52 52 54 56 57 58 58 57 58 58 57 56 55
31 28 28 29 30 31 29 28 31 35 37 39 41 43 43 43 42 42 42 42 42 41 41 40 40 40 39 38 38 38 39 40 42 44 45 46 48 49 49 50 50 51 50 49 49 49 48 49 48 49 50 50 51 54 55 56 56 55 56 56 55 55 55
29 28 29 29 30 30 29 28 31 35 37 39 41 43 43 43 42 42 43 43 41 40 39 38 37 37 36 36 36 36 38 40 42 44 46 47 48 49 50 50 51 52 51 50 49 48 48 48 47 47 48 47 48 50 52 55 55 54 54 55 54 55 55
28 28 29 30 29 30 30 29 31 35 37 38 39 42 43 43 43 43 43 43 41 39 38 36 35 35 35 34 35 36 38 40 43 45 46 48 49 50 50 51 52 52 51 50 50 49 48 47 46 46 46 45 45 45 46 48 50 49 52 54 54 55 56
28 28 28 29 29 30 31 32 31 34 37 38 39 41 43 44 44 45 44 43 41 39 37 35 33 33 33 33 34 36 38 41 43 45 46 48 49 50 50 51 52 53 53 52 52 51 50 49 48 48 48 47 47 46 46 46 45 44 46 49 50 51 53
29 29 28 28 29 30 32 33 33 33 35 38 39 41 43 44 45 44 44 43 40 38 35 34 32 32 33 34 36 37 39 41 43 45 46 47 49 51 51 53 54 54 54 54 53 52 51 49 49 49 49 48 48 48 48 48 47 44 44 45 46 47 48
30 30 28 28 30 31 32 34 34 34 35 37 39 40 42 43 43 43 43 42 39 36 35 33 32 32 34 36 37 38 40 41 43 45 46 48 50 52 53 54 55 54 55 55 54 53 51 50 49 49 49 48 48 48 48 48 48 46 45 45 45 45 45
30 30 29 28 30 31 32 33 35 35 35 37 38 39 40 41 41 41 40 39 37 35 33 32 32 33 35 37 38 39 41 42 43 45 47 48 50 51 52 53 54 54 55 55 55 54 53 52 51 51 50 49 49 48 48 48 48 47 46 45 45 45 44
30 31 30 29 29 31 32 33 35 36 36 37 37 37 38 38 38 37 37 36 34 33 32 32 33 34 36 37 39 40 41 42 44 45 47 48 50 51 52 52 53 53 54 54 54 55 54 53 52 52 51 50 50 49 49 48 47 47 46 45 45 45 44
30 32 32 31 30 30 32 34 36 37 37 37 36 36 35 35 35 33 33 32 32 32 31 32 33 35 36 38 39 40 41 42 44 45 47 48 49 50 50 51 51 52 52 53 52 53 53 52 52 52 51 51 50 49 49 48 47 47 46 45 44 44 44
31 33 33 32 31 31 32 34 36 37 37 37 36 35 34 33 32 31 30 30 30 30 31 32 34 36 37 38 39 41 42 43 44 45 46 47 48 49 50 50 51 51 51 52 51 52 52 51 51 51 51 50 50 49 48 48 48 47 45 44 43 42 42
32 33 33 33 33 33 33 34 35 36 36 36 35 34 33 32 30 29 29 29 29 30 31 32 34 36 37 38 39 41 42 43 43 44 46 47 48 49 50 50 51 51 51 51 51 51 51 51 50 50 49 49 49 48 48 47 47 47 45 43 42 41 40
33 34 34 35 35 35 35 34 34 35 35 35 34 33 31 30 29 28 28 28 29 30 31 32 34 35 37 38 39 40 41 42 43 44 45 46 48 49 50 50 51 51 51 51 51 51 50 50 49 49 48 48 48 47 47 47 47 46 45 44 43 42 40
33 34 35 36 37 37 37 34 34 35 36 34 33 31 29 28 28 28 28 29 29 30 30 32 34 35 37 38 39 40 41 42 43 44 45 46 48 49 50 50 51 51 50 50 50 50 50 49 49 48 47 47 47 46 46 46 46 46 45 44 43 42 40
33 35 37 38 38 39 39 36 34 35 35 34 32 30 28 27 27 28 28 29 30 31 31 32 34 35 37 38 39 40 41 42 43 44 45 46 47 48 49 50 50 50 50 49 49 49 49 49 48 48 47 47 46 46 45 45 45 45 45 44 43 42 40
34 36 38 40 39 39 39 38 36 34 33 32 30 29 28 28 28 29 29 30 31 32 33 34 35 36 38 39 40 41 41 42 43 44 45 46 47 48 49 50 50 50 50 49 49 49 48 48 48 47 47 47 46 46 45 44 44 44 44 43 43 42 40
34 36 38 40 39 37 36 36 36 33 31 30 29 28 28 28 28 29 30 31 32 32 33 35 36 36 38 39 40 41 41 42 43 44 45 45 46 47 48 49 50 50 50 49 49 48 48 48 48 48 48 47 47 46 46 45 44 43 43 43 42 41 40
34 35 37 38 38 37 35 34 33 32 30 29 28 28 27 27 28 29 30 32 33 33 33 35 36 37 38 39 40 41 41 42 43 44 44 45 46 46 47 48 49 50 50 49 49 49 48 48 48 48 48 48 48 47 46 45 45 44 43 43 42 41 40
33 34 35 35 35 35 34 32 30 29 29 29 28 28 28 27 28 30 31 32 33 33 34 35 36 37 38 39 40 41 41 42 43 43 44 44 45 46 47 48 49 49 50 50 49 49 49 49 49 49 49 50 50 49 48 47 46 45 44 44 42 41 40
31 32 32 31 32 33 33 30 28 27 28 29 29 29 29 29 29 30 31 33 34 34 34 35 36 37 38 39 40 41 41 42 42 43 43 44 45 45 46 48 48 49 50 50 50 50 50 50 50 50 50 50 51 51 50 48 47 46 45 44 43 42 41
27 28 28 29 30 31 30 28 27 27 28 29 30 30 30 30 30 30 31 33 34 35 35 35 36 37 38 39 40 41 42 42 42 42 43 44 44 45 46 47 48 49 50 51 52 52 52 52 52 51 52 52 52 52 51 50 48 47 46 44 43 42 41
26 26 27 29 29 29 28 27 27 27 27 29 30 31 31 31 31 31 31 32 34 35 35 36 37 37 38 39 40 41 42 42 42 43 43 44 44 45 46 48 49 50 51 52 53 54 55 55 55 54 54 55 55 54 53 52 50 48 47 45 43 42 41
Wind_Direction
312 313 313 314 314 315 315 315 314 314 314 314 313 312 311 309 307 308 309 310 310 311 311 310 310 309 308 308 308 309 310 310 310 311 312 313 314 315 316 315 314 313 313 315 315 314 315 315 313 313 313 313 312 313 312 310 310 310 310 310 310 310 311
313 313 313 313 314 314 314 314 313 313 313 313 312 311 309 307 306 308 309 310 310 310 310 310 309 309 308 308 308 309 310 310 311 312 312 314 314 315 315 315 314 314 314 314 314 313 313 313 312 312 312 312 312 312 311 309 309 309 308 308 308 309 309
312 312 312 312 312 313 314 314 313 313 312 311 310 309 307 306 306 308 308 309 309 310 310 309 309 309 308 308 309 310 310 311 312 313 313 314 315 315 315 315 314 314 313 313 313 313 312 312 312 311 311 312 312 310 309 308 308 307 307 307 307 308 308
310 310 310 310 311 313 314 314 313 312 310 309 308 307 306 305 307 308 308 308 310 310 310 310 309 308 307 307 309 310 310 311 312 314 314 315 316 315 315 314 314 314 313 312 312 313 312 311 311 311 311 312 310 309 308 307 307 307 306 307 307 307 308
309 309 309 310 312 313 314 313 312 310 307 306 306 306 306 306 307 308 308 309 310 311 311 310 309 308 307 307 309 310 311 312 313 313 314 315 315 314 313 313 313 313 312 312 312 312 312 311 310 310 311 311 310 308 307 307 307 307 306 307 307 307 308
308 309 310 311 313 313 313 312 310 307 305 304 305 306 305 306 307 307 308 310 311 313 312 310 308 307 308 309 310 311 312 313 313 313 313 314 313 312 311 311 312 312 311 312 312 311 311 311 310 310 312 312 310 308 308 308 307 306 306 307 307 307 308
309 309 310 312 312 313 312 310 307 304 303 303 305 304 304 304 306 307 309 311 313 313 312 309 308 309 311 312 312 313 314 313 313 312 312 312 311 310 310 310 310 311 311 312 312 311 311 312 311 312 313 313 310 309 309 308 307 306 307 307 307 306 307
309 309 310 311 312 311 309 307 304 302 302 303 304 303 302 304 306 308 311 313 314 313 312 311 311 312 313 313 313 313 313 312 311 310 310 309 308 308 309 310 311 312 313 313 313 313 313 312 312 313 315 313 311 310 309 307 306 307 308 308 307 307 307
308 309 310 311 311 309 306 304 303 302 303 303 303 302 302 304 308 311 313 314 314 314 313 312 313 313 312 312 312 312 311 310 309 308 307 308 308 310 311 312 313 314 314 315 314 313 313 313 314 316 316 314 313 311 310 308 307 307 308 308 307 307 308
308 309 310 310 308 305 303 303 304 304 304 304 303 302 303 305 309 311 312 313 313 313 313 313 313 312 312 312 312 311 310 309 308 308 308 309 311 313 314 316 316 316 316 315 314 314 314 314 317 318 316 315 315 312 309 308 308 308 309 308 308 309 309
308 309 309 308 305 303 303 305 305 304 304 304 303 303 304 306 310 312 313 313 313 314 315 315 314 313 314 314 313 312 311 310 310 311 312 313 315 316 317 317 316 316 317 315 315 315 315 316 318 319 317 316 315 311 309 309 308 308 309 309 309 310 310
309 308 307 304 303 303 304 306 305 304 303 303 304 305 306 309 312 314 314 316 317 318 318 317 317 317 317 317 316 316 315 315 315 315 316 317 318 318 317 317 317 318 318 316 315 316 317 317 319 319 318 316 313 311 309 309 308 308 309 309 309 309 310
309 307 305 303 303 304 305 306 305 303 303 304 305 307 307 310 312 314 315 317 318 319 319 319 319 319 319 318 318 318 318 318 318 318 317 318 318 319 319 319 320 320 317 315 315 316 317 319 318 318 318 315 312 311 310 308 308 308 308 308 309 309 309
308 306 304 303 304 304 305 305 304 303 304 305 306 307 307 310 312 312 314 316 317 318 318 319 319 318 318 318 318 319 319 319 319 317 317 320 321 322 322 322 321 319 316 315 316 316 318 319 317 317 317 315 312 311 309 308 308 308 307 307 308 308 307
306 304 303 303 303 303 304 305 304 303 304 305 306 306 307 309 311 311 313 314 315 316 317 318 317 317 317 318 319 320 319 317 317 318 320 322 323 322 322 322 321 319 317 318 317 317 318 318 316 315 315 314 311 309 308 307 306 306 306 306 307 307 305
303 302 302 302 302 301 303 304 304 304 304 305 306 306 307 308 309 310 312 313 314 316 316 317 316 316 317 318 319 318 317 317 318 320 322 323 322 322 323 323 321 320 320 321 320 320 320 319 319 317 316 316 314 311 309 308 307 308 307 306 308 307 307
301 302 301 301 301 301 303 305 305 304 304 305 306 305 306 307 308 310 311 313 315 316 316 317 317 317 318 318 318 317 317 319 320 321 322 323 323 323 324 323 322 322 322 322 321 321 321 321 321 319 318 318 316 312 310 308 309 311 309 308 310 310 309
299 301 301 301 301 301 303 305 304 303 303 304 305 305 305 307 309 311 312 313 315 317 318 319 319 318 318 317 316 318 320 321 321 322 323 324 324 324 324 323 322 322 322 321 321 321 321 321 321 319 318 318 317 313 310 307 308 308 306 307 310 309 308
299 300 301 301 301 302 303 304 304 303 303 304 305 305 306 308 310 312 313 314 317 319 320 320 320 318 316 316 319 321 323 322 322 322 323 323 323 324 324 323 322 322 322 321 321 321 322 322 322 321 320 320 319 318 315 312 311 307 303 305 306 304 304
299 299 300 301 302 303 304 304 304 304 304 304 305 306 307 309 310 312 313 315 318 320 321 320 319 317 317 320 322 323 323 322 321 321 322 323 323 324 325 324 324 323 322 321 321 321 322 322 322 321 320 320 320 319 318 317 316 313 308 306 305 302 300
299 299 300 302 303 304 305 304 304 304 304 304 305 306 307 307 309 311 313 315 318 320 320 319 319 319 320 322 323 322 322 321 322 322 323 324 325 325 325 324 324 323 322 321 320 320 320 321 320 319 319 319 319 319 318 318 317 317 315 312 309 307 303
299 299 301 303 305 305 305 304 303 304 304 304 305 305 305 306 308 310 312 314 317 318 318 319 320 321 322 322 322 322 323 323 324 325 325 326 325 325 324 324 323 322 321 320 320 319 319 320 319 319 318 318 318 318 318 318 318 318 318 316 314 312 308
299 299 301 304 305 304 303 303 302 303 304 304 304 304 305 306 308 310 312 314 316 317 317 319 320 320 321 321 322 323 323 324 325 325 326 325 325 324 323 323 322 321 320 320 319 319 319 320 319 319 318 318 317 317 317 317 318 317 318 319 318 316 313
300 300 303 305 305 303 303 303 303 304 305 305 305 306 307 308 309 311 313 313 314 315 317 318 319 319 320 321 322 323 324 325 325 325 325 325 324 324 323 322 322 321 320 320 319 319 319 320 320 319 319 318 317 317 317 317 317 317 318 320 320 318 316
301 302 305 306 304 303 303 304 304 305 305 306 307 309 310 310 312 312 312 312 313 315 318 319 319 320 321 322 322 323 324 325 325 325 325 324 324 324 323 323 322 322 321 321 321 320 321 321 321 320 320 320 319 318 318 317 316 317 318 319 319 319 317
303 304 306 305 304 304 304 305 305 306 307 308 310 311 311 312 313 312 312 313 315 317 319 320 319 320 321 322 323 323 324 324 325 325 324 324 324 324 324 324 324 324 323 323 323 323 322 322 322 322 321 320 320 319 319 318 316 317 318 318 319 318 318
305 306 306 304 304 304 305 307 309 309 309 311 311 311 311 311 312 311 312 314 316 318 320 319 319 320 321 322 323 323 323 324 324 324 325 325 325 326 326 326 326 326 326 326 325 325 325 324 324 324 323 322 321 321 320 319 318 318 318 318 318 318 318
306 307 305 305 306 306 307 310 312 311 311 311 311 310 310 310 310 311 313 315 316 318 320 319 320 321 321 321 322 322 322 323 324 325 326 326 326 327 327 328 328 328 328 328 327 327 327 326 326 325 325 324 323 322 322 321 320 319 319 318 318 318 318
307 308 306 306 308 308 309 312 314 312 312 312 311 310 310 311 311 312 314 315 317 320 321 321 321 322 321 321 321 322 323 324 325 325 326 327 328 329 329 329 329 329 330 329 329 328 328 328 328 328 327 325 325 324 323 322 321 320 320 319 318 318 319
307 308 307 306 307 308 310 312 314 313 311 310 309 310 311 312 312 312 314 316 319 321 322 321 321 321 321 321 321 322 323 325 325 326 327 328 329 330 330 330 330 330 331 331 330 330 329 329 329 329 328 327 326 325 324 323 321 320 320 319 319 319 319
306 306 305 305 306 307 308 310 311 311 310 308 308 309 310 311 311 312 314 317 319 321 321 320 321 321 321 321 322 323 324 324 325 325 327 328 330 330 331 331 331 331 332 332 331 331 330 330 330 330 329 329 328 326 325 323 322 321 319 319 319 318 319
304 304 303 303 304 307 309 310 310 310 309 308 308 309 310 310 311 313 315 317 318 319 319 319 320 321 321 321 322 323 323 323 324 325 327 328 330 331 331 331 331 332 332 332 332 331 330 330 330 329 329 329 328 327 326 324 322 320 319 318 318 318 318
302 301 301 302 304 306 308 309 309 309 309 308 309 311 312 313 314 315 315 316 316 318 318 319 320 321 321 322 322 322 322 322 323 325 326 328 330 331 332 332 332 332 332 332 332 332 330 330 329 329 328 328 327 326 326 325 322 320 318 317 317 317 317
299 299 300 303 305 305 306 307 309 310 309 309 311 313 315 316 316 315 314 315 316 317 318 319 320 320 320 321 321 321 321 321 322 324 326 328 330 331 332 333 332 332 333 333 332 332 331 330 329 329 328 327 326 325 325 324 322 320 317 316 316 315 315
300 302 304 305 303 303 305 308 311 311 311 311 313 314 315 316 315 314 314 315 316 317 318 318 319 319 320 320 320 320 320 321 322 324 325 327 329 331 333 333 333 333 333 333 332 332 331 330 330 329 328 327 326 325 323 322 321 318 316 314 313 312 313
306 308 308 306 305 305 309 312 313 314 313 313 314 315 315 316 316 316 316 316 315 316 317 318 318 319 319 319 319 319 320 320 321 323 325 326 328 331 332 333 333 333 333 333 332 332 331 330 330 329 328 326 326 325 323 321 319 316 315 313 311 309 309